Regional Weather Roundup
Issued by NWS Sterling, VA

Home | Current Version | Previous Version | Graphics & Text | Print | Product List | Glossary On
Versions: 1 2 3 4 5 6 7 8 9 10 11 12 13 14 15 16 17 18 19 20 21 22 23 24 25 26 27 28 29 30 31 32 33 34 35 36 37 38 39 40 41 42 43 44 45 46 47 48 49 50
000
ASUS41 KLWX 172111
RWRLWX

REGIONAL WEATHER ROUNDUP
NATIONAL WEATHER SERVICE BALTIMORE MD/WASHINGTON DC
400 PM EST WED JAN 17 2018

Note: "FAIR" indicates few or no clouds below 12,000 feet
with no significant weather and/or obstructions to visibility.
 TC=TEMPERATURE CELSIUS

 * =Non NWS site. Station does not report precipitation (e.g. rain,
    snow, etc.), thunder, or fog.

DCZ001-MDZ009-015-VAZ040>042-051-053>054-172200-
WASHINGTON METRO

CITY           SKY/WX    TMP DP  RH WIND       PRES   REMARKS
WASHINGTON NAT CLOUDY    26   8  46 N20       30.33F WCI  12
DULLES         PTSUNNY   23   7  50 NW12      30.33F WCI  12
ANDREWS AFB    FAIR      24   8  50 NW14      30.29F WCI  12
FT BELVOIR     FAIR      24   5  43 NW14G23   30.33F WCI  12
QUANTICO       CLOUDY    26   8  46 N15G23      N/A  WCI  14
COLLEGE PARK*  FAIR      24   7  47 NW8       30.32F WCI  15
LEESBURG*      FAIR      27  10  50 N10G17    30.34F WCI  17
MANASSAS*      FAIR      24   9  52 N17G23    30.34F WCI  11
GAITHERSBURG*  FAIR      22   8  55 NW6       30.31R WCI  14

$$

MDZ006>007-011-014-172200-
BALTIMORE METRO

CITY           SKY/WX    TMP DP  RH WIND       PRES   REMARKS
BWI AIRPORT    PTSUNNY   24   7  48 NW14      30.30S WCI  12
MD SCIENCE CTR   N/A     27   7  42 MISG      30.32F
MARTIN STATE   PTSUNNY   25  10  54 W12G20    30.33R WCI  14
ANNAPOLIS      FAIR      28  11  48 NW14      30.30S WCI  17
FORT MEADE*    FAIR      27  10  50 NW9G17    30.34S WCI  17

$$

MDZ012-015-019>023-172200-
MARYLAND EASTERN SHORE

CITY           SKY/WX    TMP DP  RH WIND       PRES   REMARKS
OCEAN CITY     LGT SNOW  27  22  81 NW7       30.26R WCI  19
SALISBURY      CLOUDY    27  15  61 NW15      30.26R WCI  15
BAY BRIDGE AP* PTSUNNY   25  10  54 MISG      30.30F
CAMBRIDGE*     SUNNY     27  10  50 N14G22    30.28S WCI  15
EASTON*        PTSUNNY   27  10  50 N9G16     30.32S WCI  17

$$

MDZ017>025-172200-
SOUTHERN MARYLAND

CITY           SKY/WX    TMP DP  RH WIND       PRES   REMARKS
PATUXENT RIVER CLOUDY    27  11  51 NW16      30.28F WCI  15
ST INIGOES     CLOUDY    28  11  48 NW12      30.28S WCI  18
LEONARDTOWN*   PTSUNNY   27  10  50 NW9       30.30R WCI  17

$$

MDZ003>005-172200-
NORTH CENTRAL MARYLAND

CITY           SKY/WX    TMP DP  RH WIND       PRES   REMARKS
FREDERICK*     SUNNY     25   3  39 N10       30.36S WCI  15
HAGERSTOWN APT FAIR      22   8  55 NW13      30.30F WCI  10
WESTMINSTER*   FAIR      21   9  58 NW10G16   30.27F WCI  10

$$

MDZ501>502-172200-
WESTERN MARYLAND

CITY           SKY/WX    TMP DP  RH WIND       PRES   REMARKS
OAKLAND*       CLOUDY     5   1  85 W6        30.18F WCI  -6
CUMBERLAND*    FAIR      25   5  42 N12G18    30.39F WCI  14

$$

VAZ025>031-172200-
SHENANDOAH VALLEY

CITY           SKY/WX    TMP DP  RH WIND       PRES   REMARKS
WINCHESTER*    FAIR      23   3  42 NW18      30.33R WCI   9
FRONT ROYAL*   FAIR      27   7  43 N7        30.30S WCI  19
LURAY*         FAIR      28   9  43 N9        30.29R WCI  20
NEW MARKET*    FAIR      26   2  36 N8        30.28S WCI  17
STAUNTON*      CLOUDY    26   8  46 N12G18    30.27S WCI  15
WAYNESBORO*    CLOUDY    24   7  48 N8        30.23F WCI  15

$$

WVZ021-048>050-054>055-172200-
EASTERN WEST VIRGINIA PANHANDLE

CITY           SKY/WX    TMP DP  RH WIND       PRES   REMARKS
MARTINSBURG    FAIR      24   5  44 N9        30.31F WCI  14
PETERSBURG*    FAIR      24   5  45 NW10      30.33R WCI  13

$$

VAZ036>039-050-172200-
CENTRAL FOOTHILLS

CITY           SKY/WX    TMP DP  RH WIND       PRES   REMARKS
CHARLOTTESVILL CLOUDY    30   7  37 N5        30.26F WCI  25
CULPEPER*      PTSUNNY   27   3  35 N8G18     30.33S WCI  18
ORANGE*        CLOUDY    27   9  46 N13       30.30F WCI  16
GORDONSVILLE*  CLOUDY    26   8  46 NE8       30.29S WCI  17
WARRENTON*     FAIR      26   2  36 N10       30.32R WCI  16

$$

VAZ055>057-172200-
NORTH AND CENTRAL PIEDMONT

CITY           SKY/WX    TMP DP  RH WIND       PRES   REMARKS
FREDERICKSBRG* FAIR      26  10  50 N8        30.32S WCI  17
STAFFORD*      CLOUDY    25   7  45 N12       30.37R WCI  14

$$

NCZ024-NYZ072-PAZ021-071-VAZ022-071-172200-
OTHER REGIONAL OBSERVATIONS

CITY           SKY/WX    TMP DP  RH WIND       PRES   REMARKS
NEW YORK CITY  CLOUDY    31  24  75 W7G17     30.20R WCI  24
PHILADELPHIA   CLOUDY    26  11  52 NW14      30.25F WCI  14
PITTSBURGH     FLURRIES  14   6  70 W7        30.37F WCI   4
ROANOKE        CLOUDY    25  13  60 NW9       30.27F WCI  15
RICHMOND       CLOUDY    26  15  63 N14       30.28S WCI  14
RALEIGH        HVY SNOW  31  30  96 NE9       30.19R VSB 1/4 WCI  23

$$

ANZ530>537-172200-
MARINE OBSERVATIONS

STATION/POSITION TIME  TEMP    WIND        PRES
                       AIR SEA DIR/SP/G
                 (UTC) (F)     (DEG/KT/KT) (MB)
THOMAS PT LIGHT  2100   25 31  330/ 17/ 19   N/A
BALT KEY BRIDGE  2048   25     330/ 16/ 19 1026.4R
COVE POINT       2048   26     360/ 18/ 21 1026.1F
LEWISETTA        2048   27 33  360/  9/ 13 1025.6S
SOLOMONS ISLAND  2048   27 34  330/ 11/ 15 1025.2F
PINEY POINT      2048           10/ 12/ 15   N/A

$$




USA.gov is the U.S. government's official web portal to all federal, state and local government web resources and services.